IBE0139 LEMD-SBRF

Flight info

Callsign IBE0139
Flight time N/A
Altitude 33000
Route CCS N975 ELVAR A975 BIRBA UN873 SAMAR N873 IPERA B623 CVS UB623 FNR W41 UBRUT
Aircraft A21N/M-SADE1GHIJ1J4J7M3P2RWXY/EB1D1G1

Departure

Time N/A
Airport Adolfo Suárez Madrid–Barajas Airport (LEMD)

Arrival

Time 2026-05-01 10:34
Airport Recife/Guararapes - Gilberto Freyre International Airport (SBRF)
Time Latitude Longitude Altitude Speed Heading
2026-05-01 07:23 13.09005 -24.72926 33029 ft 461 kts 207°
2026-05-01 07:24 13.00273 -24.77072 33028 ft 461 kts 207°
2026-05-01 07:24 12.94453 -24.79834 33026 ft 461 kts 207°
2026-05-01 07:25 12.88621 -24.82606 33030 ft 462 kts 207°
2026-05-01 07:25 12.82791 -24.85372 33027 ft 462 kts 207°
2026-05-01 07:26 12.76954 -24.88140 33028 ft 462 kts 207°
2026-05-01 07:26 12.71126 -24.90902 33029 ft 462 kts 207°
2026-05-01 07:27 12.65286 -24.93666 33031 ft 462 kts 207°
2026-05-01 07:27 12.59453 -24.96424 33028 ft 462 kts 207°
2026-05-01 07:28 12.53644 -24.99173 33025 ft 463 kts 207°
2026-05-01 07:28 12.47800 -25.01936 33030 ft 463 kts 206°
2026-05-01 07:29 12.41950 -25.04702 33023 ft 463 kts 207°
2026-05-01 07:29 12.36102 -25.07464 33026 ft 463 kts 207°
2026-05-01 07:30 12.30254 -25.10225 33027 ft 463 kts 206°
2026-05-01 07:30 12.24407 -25.12985 33023 ft 463 kts 206°
2026-05-01 07:31 12.18557 -25.15746 33026 ft 463 kts 206°
2026-05-01 07:32 12.03921 -25.22643 33023 ft 463 kts 206°
2026-05-01 07:33 11.95146 -25.26775 33023 ft 463 kts 206°
2026-05-01 07:33 11.86360 -25.30908 33021 ft 464 kts 206°
2026-05-01 07:34 11.77569 -25.35041 33022 ft 464 kts 206°
2026-05-01 07:35 11.71706 -25.37797 33022 ft 464 kts 206°
2026-05-01 07:35 11.65845 -25.40550 33022 ft 464 kts 206°
2026-05-01 07:36 11.59983 -25.43302 33020 ft 464 kts 206°
2026-05-01 07:36 11.54116 -25.46056 33017 ft 465 kts 206°
2026-05-01 07:37 11.45351 -25.50171 33017 ft 465 kts 206°
2026-05-01 07:37 11.39487 -25.52919 33013 ft 464 kts 206°
2026-05-01 07:38 11.33619 -25.55667 33015 ft 464 kts 206°
2026-05-01 07:39 11.24814 -25.59788 33015 ft 464 kts 206°
2026-05-01 07:39 11.15994 -25.63918 33015 ft 465 kts 206°
2026-05-01 07:40 11.10120 -25.66666 33015 ft 464 kts 206°
2026-05-01 07:40 11.04241 -25.69417 33013 ft 465 kts 206°
2026-05-01 07:41 10.98359 -25.72159 33010 ft 465 kts 206°
2026-05-01 07:42 10.89546 -25.76277 33009 ft 465 kts 206°
2026-05-01 07:42 10.83656 -25.79027 33008 ft 469 kts 206°
2026-05-01 07:43 10.77749 -25.81782 33006 ft 466 kts 206°
2026-05-01 07:43 10.68907 -25.85905 33008 ft 467 kts 206°
2026-05-01 07:44 10.57148 -25.91383 33005 ft 466 kts 206°
2026-05-01 07:45 10.51245 -25.94135 33002 ft 468 kts 206°
2026-05-01 07:45 10.45330 -25.96886 33001 ft 468 kts 206°
2026-05-01 07:46 10.39411 -25.99641 33001 ft 468 kts 206°
2026-05-01 07:47 10.30542 -26.03765 33007 ft 467 kts 206°
2026-05-01 07:47 10.24626 -26.06516 33005 ft 467 kts 206°
2026-05-01 07:48 10.15756 -26.10634 33000 ft 468 kts 206°
2026-05-01 07:48 10.09833 -26.13385 33003 ft 467 kts 206°
2026-05-01 07:49 10.00964 -26.17501 33003 ft 467 kts 206°
2026-05-01 07:50 9.95039 -26.20248 33001 ft 468 kts 206°
2026-05-01 07:50 9.86165 -26.24363 32999 ft 467 kts 206°
2026-05-01 07:51 9.80244 -26.27107 32999 ft 468 kts 206°
2026-05-01 07:52 9.71351 -26.31225 32998 ft 468 kts 206°
2026-05-01 07:52 9.65425 -26.33967 32997 ft 469 kts 206°
2026-05-01 07:53 9.56559 -26.38040 32995 ft 468 kts 206°
2026-05-01 07:53 9.50625 -26.40771 32994 ft 469 kts 206°
2026-05-01 07:55 9.35825 -26.47645 32992 ft 468 kts 206°
2026-05-01 07:56 9.21016 -26.54480 32990 ft 468 kts 206°
2026-05-01 07:57 9.13127 -26.58117 32991 ft 468 kts 206°
2026-05-01 07:58 9.03679 -26.62473 32991 ft 468 kts 206°
2026-05-01 07:59 8.91833 -26.67935 32988 ft 468 kts 206°
2026-05-01 08:00 8.74067 -26.76120 32988 ft 467 kts 206°
2026-05-01 08:01 8.62235 -26.81559 32985 ft 467 kts 206°
2026-05-01 08:02 8.53363 -26.85643 32985 ft 467 kts 206°
2026-05-01 08:03 8.44477 -26.89724 32986 ft 468 kts 206°
2026-05-01 08:03 8.35571 -26.93808 32974 ft 468 kts 206°
2026-05-01 08:04 8.23703 -26.99254 32981 ft 468 kts 206°
2026-05-01 08:05 8.14843 -27.03316 32983 ft 468 kts 206°
2026-05-01 08:06 8.06031 -27.07353 32983 ft 469 kts 206°
2026-05-01 08:07 7.94147 -27.12793 32982 ft 469 kts 206°
2026-05-01 08:08 7.85229 -27.16877 32979 ft 469 kts 206°
2026-05-01 08:09 7.73337 -27.22318 32979 ft 470 kts 206°
2026-05-01 08:09 7.67394 -27.25037 32977 ft 469 kts 206°
2026-05-01 08:10 7.55489 -27.30478 32977 ft 470 kts 206°
2026-05-01 08:11 7.43590 -27.35914 32976 ft 469 kts 206°
2026-05-01 08:12 7.34666 -27.39988 32975 ft 469 kts 206°
2026-05-01 08:13 7.25744 -27.44058 32975 ft 469 kts 206°
2026-05-01 08:13 7.16852 -27.48113 32973 ft 470 kts 206°
2026-05-01 08:14 7.10900 -27.50826 32970 ft 470 kts 206°
2026-05-01 08:14 7.05041 -27.53498 32970 ft 470 kts 206°
2026-05-01 08:15 6.96110 -27.57569 32971 ft 470 kts 207°
2026-05-01 08:16 6.90160 -27.60280 32971 ft 470 kts 206°
2026-05-01 08:16 6.84209 -27.62989 32970 ft 470 kts 207°
2026-05-01 08:17 6.78255 -27.65705 32969 ft 470 kts 207°
2026-05-01 08:17 6.72332 -27.68403 32972 ft 470 kts 206°
2026-05-01 08:18 6.66367 -27.71112 32968 ft 470 kts 207°
2026-05-01 08:19 6.54441 -27.76534 32967 ft 471 kts 206°
2026-05-01 08:19 6.48473 -27.79251 32967 ft 471 kts 206°
2026-05-01 08:20 6.42502 -27.81966 32965 ft 471 kts 207°
2026-05-01 08:20 6.36535 -27.84675 32965 ft 471 kts 207°
2026-05-01 08:21 6.30566 -27.87390 32961 ft 471 kts 206°
2026-05-01 08:21 6.24597 -27.90094 32961 ft 471 kts 206°
2026-05-01 08:22 6.18624 -27.92804 32966 ft 471 kts 206°
2026-05-01 08:22 6.12687 -27.95494 32965 ft 471 kts 207°
2026-05-01 08:23 6.06671 -27.98225 32962 ft 471 kts 206°
2026-05-01 08:23 6.00735 -28.00919 32958 ft 471 kts 206°
2026-05-01 08:24 5.94763 -28.03642 32959 ft 471 kts 207°
2026-05-01 08:24 5.88784 -28.06360 32956 ft 471 kts 207°
2026-05-01 08:25 5.82809 -28.09065 32955 ft 471 kts 206°
2026-05-01 08:25 5.76836 -28.11774 32955 ft 471 kts 206°
2026-05-01 08:26 5.70863 -28.14483 32952 ft 471 kts 206°
2026-05-01 08:26 5.64881 -28.17187 32952 ft 471 kts 207°
2026-05-01 08:27 5.58901 -28.19890 32956 ft 471 kts 207°
2026-05-01 08:27 5.52928 -28.22591 32955 ft 471 kts 206°
2026-05-01 08:28 5.46950 -28.25299 32952 ft 471 kts 206°
2026-05-01 08:28 5.40970 -28.28010 32952 ft 471 kts 207°
2026-05-01 08:29 5.34997 -28.30727 32951 ft 472 kts 207°
2026-05-01 08:29 5.29014 -28.33438 32950 ft 472 kts 206°
2026-05-01 08:30 5.23024 -28.36147 32948 ft 472 kts 206°
2026-05-01 08:30 5.17037 -28.38853 32950 ft 472 kts 207°
2026-05-01 08:31 5.11050 -28.41562 32947 ft 472 kts 206°
2026-05-01 08:31 5.05059 -28.44268 32943 ft 472 kts 207°
2026-05-01 08:32 4.99057 -28.46983 32946 ft 477 kts 205°
2026-05-01 08:32 4.92992 -28.49725 32947 ft 478 kts 205°
2026-05-01 08:33 4.86928 -28.52463 32942 ft 477 kts 205°
2026-05-01 08:33 4.80866 -28.55201 32943 ft 478 kts 205°
2026-05-01 08:34 4.74805 -28.57943 32938 ft 478 kts 205°
2026-05-01 08:34 4.68741 -28.60680 32939 ft 478 kts 205°
2026-05-01 08:35 4.62697 -28.63410 32942 ft 475 kts 204°
2026-05-01 08:35 4.56666 -28.66133 32940 ft 475 kts 204°
2026-05-01 08:36 4.50656 -28.68847 32940 ft 473 kts 204°
2026-05-01 08:36 4.44653 -28.71557 32941 ft 473 kts 204°
2026-05-01 08:37 4.38642 -28.74270 32938 ft 473 kts 204°
2026-05-01 08:37 4.32641 -28.76976 32936 ft 473 kts 204°
2026-05-01 08:38 4.26677 -28.79666 32940 ft 473 kts 204°
2026-05-01 08:38 4.20676 -28.82372 32938 ft 473 kts 204°
2026-05-01 08:39 4.14677 -28.85077 32941 ft 473 kts 204°
2026-05-01 08:39 4.08668 -28.87785 32938 ft 473 kts 204°
2026-05-01 08:40 3.99678 -28.91840 32935 ft 472 kts 204°
2026-05-01 08:40 3.93695 -28.94538 32938 ft 471 kts 204°
2026-05-01 08:41 3.87717 -28.97230 32940 ft 471 kts 204°
2026-05-01 08:41 3.81743 -28.99919 32935 ft 471 kts 204°
2026-05-01 08:42 3.75769 -29.02609 32938 ft 471 kts 204°
2026-05-01 08:42 3.69794 -29.05303 32935 ft 470 kts 204°
2026-05-01 08:43 3.63821 -29.07994 32934 ft 471 kts 204°
2026-05-01 08:43 3.57843 -29.10684 32932 ft 471 kts 204°
2026-05-01 08:44 3.52875 -29.12921 32932 ft 471 kts 204°
2026-05-01 08:44 3.46900 -29.15612 32930 ft 471 kts 204°
2026-05-01 08:45 3.40923 -29.18300 32932 ft 471 kts 204°
2026-05-01 08:45 3.34944 -29.20992 32932 ft 471 kts 204°
2026-05-01 08:46 3.28966 -29.23679 32930 ft 471 kts 204°
2026-05-01 08:46 3.22984 -29.26372 33197 ft 471 kts 204°
2026-05-01 08:47 3.20004 -29.27715 33486 ft 469 kts 204°
2026-05-01 08:47 3.17042 -29.29047 33774 ft 466 kts 204°
2026-05-01 08:47 3.14088 -29.30375 34022 ft 464 kts 204°
2026-05-01 08:47 3.11146 -29.31697 34250 ft 462 kts 204°
2026-05-01 08:48 3.08217 -29.33014 34420 ft 462 kts 204°
2026-05-01 08:48 3.05283 -29.34334 34609 ft 461 kts 205°
2026-05-01 08:48 3.02364 -29.35647 34816 ft 460 kts 205°
2026-05-01 08:48 2.99446 -29.36958 34946 ft 460 kts 204°
2026-05-01 08:49 2.93621 -29.39575 34956 ft 458 kts 205°
2026-05-01 08:49 2.87838 -29.42173 34938 ft 458 kts 205°
2026-05-01 08:50 2.82022 -29.44790 34934 ft 459 kts 205°
2026-05-01 08:50 2.76163 -29.47420 34932 ft 459 kts 205°
2026-05-01 08:51 2.70377 -29.50022 34933 ft 458 kts 205°
2026-05-01 08:51 2.64549 -29.52641 34936 ft 458 kts 205°
2026-05-01 08:52 2.58750 -29.55250 34932 ft 458 kts 204°
2026-05-01 08:52 2.52952 -29.57850 34930 ft 456 kts 204°
2026-05-01 08:53 2.47144 -29.60459 34932 ft 458 kts 205°
2026-05-01 08:53 2.41342 -29.63067 34930 ft 459 kts 204°
2026-05-01 08:54 2.35542 -29.65674 34935 ft 457 kts 205°
2026-05-01 08:54 2.29740 -29.68278 34936 ft 456 kts 205°
2026-05-01 08:55 2.23944 -29.70882 34932 ft 458 kts 205°
2026-05-01 08:55 2.18151 -29.73483 34932 ft 456 kts 205°
2026-05-01 08:56 2.12350 -29.76085 34933 ft 455 kts 205°
2026-05-01 08:56 2.06551 -29.78688 34932 ft 457 kts 205°
2026-05-01 08:57 2.00763 -29.81290 34934 ft 457 kts 205°
2026-05-01 08:57 1.94958 -29.83896 34930 ft 458 kts 205°
2026-05-01 08:58 1.89131 -29.86504 34931 ft 458 kts 205°
2026-05-01 08:58 1.83314 -29.89101 34929 ft 458 kts 205°
2026-05-01 08:59 1.77504 -29.91712 34929 ft 458 kts 205°
2026-05-01 08:59 1.71681 -29.94327 34929 ft 458 kts 205°
2026-05-01 09:00 1.65862 -29.96938 34929 ft 460 kts 205°
2026-05-01 09:00 1.60035 -29.99552 34932 ft 459 kts 205°
2026-05-01 09:01 1.54202 -30.02168 34931 ft 459 kts 205°
2026-05-01 09:01 1.48371 -30.04782 34929 ft 460 kts 205°
2026-05-01 09:02 1.42572 -30.07381 34928 ft 460 kts 205°
2026-05-01 09:02 1.36744 -30.10009 34928 ft 459 kts 205°
2026-05-01 09:03 1.30912 -30.12629 34929 ft 459 kts 205°
2026-05-01 09:03 1.25084 -30.15245 34929 ft 460 kts 205°
2026-05-01 09:04 1.19246 -30.17861 34925 ft 459 kts 205°
2026-05-01 09:04 1.13407 -30.20480 34930 ft 460 kts 205°
2026-05-01 09:05 1.07574 -30.23095 34929 ft 460 kts 205°
2026-05-01 09:05 1.01740 -30.25710 34928 ft 460 kts 205°
2026-05-01 09:06 0.95900 -30.28330 34929 ft 459 kts 205°
2026-05-01 09:06 0.90069 -30.30947 34929 ft 460 kts 205°
2026-05-01 09:07 0.84234 -30.33559 34928 ft 460 kts 205°
2026-05-01 09:07 0.78392 -30.36180 34928 ft 458 kts 205°
2026-05-01 09:08 0.72599 -30.38778 34929 ft 459 kts 205°
2026-05-01 09:08 0.66773 -30.41392 34928 ft 460 kts 205°
2026-05-01 09:09 0.60922 -30.44014 34927 ft 460 kts 205°
2026-05-01 09:09 0.55070 -30.46640 34928 ft 461 kts 205°
2026-05-01 09:10 0.49224 -30.49260 34927 ft 461 kts 205°
2026-05-01 09:10 0.43380 -30.51878 34925 ft 460 kts 205°
2026-05-01 09:11 0.37528 -30.54506 34932 ft 461 kts 205°
2026-05-01 09:11 0.31679 -30.57127 34931 ft 462 kts 204°
2026-05-01 09:12 0.25827 -30.59748 34930 ft 461 kts 205°
2026-05-01 09:12 0.19974 -30.62374 34930 ft 461 kts 205°
2026-05-01 09:13 0.14119 -30.64997 34930 ft 461 kts 205°
2026-05-01 09:13 0.08275 -30.67615 34929 ft 461 kts 205°
2026-05-01 09:14 0.02426 -30.70238 34933 ft 458 kts 204°
2026-05-01 09:14 -0.03406 -30.72851 34932 ft 459 kts 204°
2026-05-01 09:15 -0.09218 -30.75455 34932 ft 459 kts 204°
2026-05-01 09:15 -0.15048 -30.78064 34932 ft 458 kts 204°
2026-05-01 09:16 -0.20882 -30.80672 34930 ft 459 kts 204°
2026-05-01 09:17 -0.29605 -30.84590 34932 ft 459 kts 204°
2026-05-01 09:17 -0.38344 -30.88505 34933 ft 459 kts 204°
2026-05-01 09:18 -0.47070 -30.92417 34935 ft 458 kts 204°
2026-05-01 09:19 -0.55794 -30.96330 34937 ft 458 kts 204°
2026-05-01 09:20 -0.64528 -31.00244 34932 ft 458 kts 204°
2026-05-01 09:21 -0.76191 -31.05474 34934 ft 460 kts 204°
2026-05-01 09:21 -0.84953 -31.09360 34934 ft 459 kts 203°
2026-05-01 09:22 -0.96736 -31.14355 34936 ft 460 kts 202°
2026-05-01 09:23 -1.05562 -31.18093 34933 ft 460 kts 202°
2026-05-01 09:24 -1.14389 -31.21831 34938 ft 459 kts 202°
2026-05-01 09:25 -1.26111 -31.26799 34938 ft 457 kts 202°
2026-05-01 09:26 -1.34928 -31.30538 34939 ft 458 kts 202°
2026-05-01 09:26 -1.43756 -31.34281 34938 ft 459 kts 202°
2026-05-01 09:27 -1.52589 -31.38022 34937 ft 458 kts 202°
2026-05-01 09:28 -1.58464 -31.40515 34939 ft 459 kts 202°
2026-05-01 09:28 -1.64342 -31.43004 34938 ft 459 kts 202°
2026-05-01 09:29 -1.73131 -31.46732 34941 ft 460 kts 203°
2026-05-01 09:30 -1.81952 -31.50471 34944 ft 459 kts 202°
2026-05-01 09:30 -1.90772 -31.54205 34941 ft 460 kts 202°
2026-05-01 09:31 -1.96667 -31.56706 34940 ft 459 kts 202°
2026-05-01 09:32 -2.04528 -31.60044 34941 ft 460 kts 202°
2026-05-01 09:32 -2.13384 -31.63800 34943 ft 460 kts 202°
2026-05-01 09:33 -2.19286 -31.66307 34943 ft 461 kts 202°
2026-05-01 09:34 -2.28149 -31.70064 34940 ft 462 kts 202°
2026-05-01 09:34 -2.37066 -31.73851 34943 ft 465 kts 202°
2026-05-01 09:35 -2.46009 -31.77625 34947 ft 465 kts 202°
2026-05-01 09:36 -2.51963 -31.80148 34945 ft 465 kts 202°
2026-05-01 09:36 -2.57905 -31.82669 34947 ft 463 kts 202°
2026-05-01 09:37 -2.63865 -31.85201 34947 ft 467 kts 202°
2026-05-01 09:37 -2.72840 -31.89011 34946 ft 467 kts 202°
2026-05-01 09:38 -2.81804 -31.92817 34950 ft 467 kts 202°
2026-05-01 09:39 -2.90731 -31.96617 34946 ft 467 kts 202°
2026-05-01 09:39 -2.96725 -31.99184 34946 ft 469 kts 202°
2026-05-01 09:40 -3.05721 -32.03012 34947 ft 468 kts 202°
2026-05-01 09:41 -3.11720 -32.05562 34947 ft 468 kts 202°
2026-05-01 09:41 -3.20727 -32.09388 34947 ft 469 kts 202°
2026-05-01 09:42 -3.26743 -32.11959 34949 ft 473 kts 203°
2026-05-01 09:43 -3.38437 -32.18063 34947 ft 475 kts 207°
2026-05-01 09:43 -3.44272 -32.21143 34949 ft 475 kts 206°
2026-05-01 09:44 -3.53030 -32.25766 34949 ft 475 kts 206°
2026-05-01 09:45 -3.58854 -32.28841 34943 ft 474 kts 206°
2026-05-01 09:45 -3.67604 -32.33460 34925 ft 474 kts 206°
2026-05-01 09:46 -3.73428 -32.36530 34913 ft 471 kts 206°
2026-05-01 09:46 -3.79235 -32.39597 34906 ft 472 kts 207°
2026-05-01 09:47 -3.84993 -32.42641 34906 ft 471 kts 207°
2026-05-01 09:47 -3.90718 -32.45865 34906 ft 473 kts 209°
2026-05-01 09:48 -3.96434 -32.49119 34912 ft 472 kts 208°
2026-05-01 09:48 -4.02144 -32.52374 34924 ft 472 kts 208°
2026-05-01 09:49 -4.07855 -32.55630 34938 ft 473 kts 208°
2026-05-01 09:49 -4.13569 -32.58887 34950 ft 472 kts 208°
2026-05-01 09:50 -4.19284 -32.62140 34958 ft 472 kts 208°
2026-05-01 09:50 -4.24984 -32.65392 34959 ft 472 kts 208°
2026-05-01 09:51 -4.30684 -32.68642 34962 ft 472 kts 208°
2026-05-01 09:51 -4.36390 -32.71891 34960 ft 471 kts 208°
2026-05-01 09:52 -4.42087 -32.75145 34958 ft 471 kts 208°
2026-05-01 09:52 -4.47787 -32.78401 34959 ft 472 kts 208°
2026-05-01 09:53 -4.53498 -32.81659 34958 ft 472 kts 208°
2026-05-01 09:53 -4.59216 -32.84920 34959 ft 473 kts 208°
2026-05-01 09:54 -4.64912 -32.88224 34961 ft 473 kts 209°
2026-05-01 09:54 -4.70585 -32.91534 34961 ft 471 kts 209°
2026-05-01 09:55 -4.76255 -32.94836 34963 ft 471 kts 209°
2026-05-01 09:55 -4.81893 -32.98119 34963 ft 474 kts 209°
2026-05-01 09:56 -4.87610 -33.01448 34965 ft 475 kts 209°
2026-05-01 09:56 -4.93325 -33.04776 34965 ft 475 kts 209°
2026-05-01 09:57 -4.99048 -33.08110 34961 ft 475 kts 209°
2026-05-01 09:57 -5.04763 -33.11441 34961 ft 476 kts 209°
2026-05-01 09:58 -5.10484 -33.14772 34966 ft 475 kts 209°
2026-05-01 09:58 -5.16199 -33.18105 34963 ft 474 kts 209°
2026-05-01 09:59 -5.21914 -33.21438 34964 ft 475 kts 209°
2026-05-01 09:59 -5.27624 -33.24769 34963 ft 475 kts 209°
2026-05-01 10:00 -5.33339 -33.28100 34966 ft 475 kts 209°
2026-05-01 10:00 -5.39044 -33.31435 34969 ft 475 kts 210°
2026-05-01 10:01 -5.44413 -33.35348 34970 ft 478 kts 216°
2026-05-01 10:01 -5.49695 -33.39396 34970 ft 478 kts 216°
2026-05-01 10:02 -5.54986 -33.43439 34972 ft 476 kts 216°
2026-05-01 10:02 -5.60249 -33.47454 34970 ft 476 kts 216°
2026-05-01 10:03 -5.65508 -33.51470 34971 ft 475 kts 216°
2026-05-01 10:03 -5.70766 -33.55485 34970 ft 476 kts 216°
2026-05-01 10:04 -5.76026 -33.59506 34975 ft 474 kts 216°
2026-05-01 10:04 -5.81287 -33.63527 34974 ft 475 kts 216°
2026-05-01 10:05 -5.86548 -33.67547 34969 ft 476 kts 216°
2026-05-01 10:05 -5.91776 -33.71545 34974 ft 477 kts 216°
2026-05-01 10:06 -5.97053 -33.75579 34975 ft 476 kts 216°
2026-05-01 10:06 -6.02322 -33.79611 34975 ft 476 kts 216°
2026-05-01 10:07 -6.07624 -33.83671 34974 ft 476 kts 216°
2026-05-01 10:07 -6.12846 -33.87667 34975 ft 476 kts 216°
2026-05-01 10:08 -6.20737 -33.93708 34978 ft 476 kts 216°
2026-05-01 10:09 -6.26001 -33.97738 34978 ft 475 kts 216°
2026-05-01 10:09 -6.31258 -34.01767 34981 ft 474 kts 216°
2026-05-01 10:10 -6.36466 -34.05752 34974 ft 471 kts 216°
2026-05-01 10:10 -6.44358 -34.11803 34924 ft 473 kts 217°
2026-05-01 10:11 -6.46963 -34.13800 34435 ft 470 kts 217°
2026-05-01 10:11 -6.49560 -34.15791 33796 ft 469 kts 216°
2026-05-01 10:11 -6.52157 -34.17780 33068 ft 470 kts 216°
2026-05-01 10:11 -6.54759 -34.19776 32312 ft 472 kts 216°
2026-05-01 10:12 -6.57377 -34.21783 31534 ft 474 kts 216°
2026-05-01 10:12 -6.59119 -34.23117 31025 ft 474 kts 216°
2026-05-01 10:12 -6.65260 -34.27827 29086 ft 477 kts 216°
2026-05-01 10:13 -6.67907 -34.29857 28216 ft 479 kts 216°
2026-05-01 10:13 -6.70559 -34.31893 27324 ft 482 kts 216°
2026-05-01 10:13 -6.73233 -34.33948 26390 ft 485 kts 216°
2026-05-01 10:14 -6.78595 -34.38070 24630 ft 485 kts 216°
2026-05-01 10:14 -6.81270 -34.40122 23904 ft 482 kts 216°
2026-05-01 10:14 -6.83926 -34.42163 23185 ft 478 kts 216°
2026-05-01 10:14 -6.86560 -34.44187 22469 ft 476 kts 216°
2026-05-01 10:15 -6.89171 -34.46193 22018 ft 467 kts 215°
2026-05-01 10:15 -6.91747 -34.48173 21663 ft 466 kts 215°
2026-05-01 10:15 -6.94315 -34.50144 21295 ft 463 kts 215°
2026-05-01 10:15 -6.96838 -34.52080 20775 ft 459 kts 215°
2026-05-01 10:16 -6.99397 -34.54044 20205 ft 455 kts 215°
2026-05-01 10:16 -7.01864 -34.55943 19656 ft 449 kts 215°
2026-05-01 10:16 -7.06803 -34.59747 18551 ft 442 kts 215°
2026-05-01 10:17 -7.09236 -34.61621 17820 ft 439 kts 215°
2026-05-01 10:17 -7.14055 -34.65326 16607 ft 433 kts 215°
2026-05-01 10:17 -7.16440 -34.67161 16085 ft 429 kts 215°
2026-05-01 10:18 -7.21147 -34.70784 15084 ft 423 kts 215°
2026-05-01 10:18 -7.23475 -34.72576 14642 ft 421 kts 215°
2026-05-01 10:18 -7.25786 -34.74363 14248 ft 418 kts 216°
2026-05-01 10:19 -7.28090 -34.76152 13867 ft 416 kts 216°
2026-05-01 10:19 -7.30370 -34.77920 13418 ft 413 kts 216°
2026-05-01 10:19 -7.32636 -34.79677 12879 ft 409 kts 216°
2026-05-01 10:20 -7.37113 -34.83147 11950 ft 398 kts 215°
2026-05-01 10:20 -7.39269 -34.84818 11689 ft 384 kts 215°
2026-05-01 10:20 -7.40655 -34.85892 11551 ft 375 kts 215°
2026-05-01 10:20 -7.43341 -34.87978 11337 ft 355 kts 215°
2026-05-01 10:21 -7.44623 -34.88974 11235 ft 347 kts 215°
2026-05-01 10:21 -7.48293 -34.91827 10817 ft 320 kts 214°
2026-05-01 10:21 -7.50591 -34.93611 10381 ft 313 kts 214°
2026-05-01 10:22 -7.53483 -34.95854 9706 ft 312 kts 214°
2026-05-01 10:22 -7.56888 -34.98497 8930 ft 307 kts 214°
2026-05-01 10:23 -7.58575 -34.99810 8518 ft 306 kts 214°
2026-05-01 10:23 -7.61924 -35.02413 7802 ft 302 kts 214°
2026-05-01 10:23 -7.63576 -35.03697 7448 ft 299 kts 214°
2026-05-01 10:24 -7.66897 -35.06153 6730 ft 290 kts 202°
2026-05-01 10:24 -7.70599 -35.06251 5914 ft 267 kts 159°
2026-05-01 10:25 -7.74125 -35.05035 5233 ft 269 kts 158°
2026-05-01 10:25 -7.77677 -35.03846 4770 ft 266 kts 159°
2026-05-01 10:26 -7.79406 -35.03284 4415 ft 258 kts 159°
2026-05-01 10:26 -7.81104 -35.02736 4020 ft 254 kts 160°
2026-05-01 10:26 -7.84342 -35.01688 3722 ft 234 kts 159°
2026-05-01 10:27 -7.87301 -35.00709 3421 ft 213 kts 159°
2026-05-01 10:27 -7.89976 -34.99822 3006 ft 196 kts 159°
2026-05-01 10:28 -7.91260 -34.99397 2663 ft 193 kts 159°
2026-05-01 10:28 -7.93610 -34.98620 2366 ft 161 kts 159°
2026-05-01 10:28 -7.94623 -34.98284 2145 ft 146 kts 159°
2026-05-01 10:29 -7.96580 -34.97635 1706 ft 150 kts 161°
2026-05-01 10:29 -7.97551 -34.97314 1704 ft 138 kts 160°
2026-05-01 10:30 -7.99342 -34.96720 1698 ft 135 kts 160°
2026-05-01 10:30 -8.01127 -34.96128 1693 ft 135 kts 160°
2026-05-01 10:31 -8.02892 -34.95544 1714 ft 132 kts 159°
2026-05-01 10:31 -8.04627 -34.94969 1414 ft 131 kts 159°
2026-05-01 10:32 -8.06363 -34.94395 1061 ft 130 kts 157°
2026-05-01 10:32 -8.07226 -34.94107 889 ft 134 kts 159°
2026-05-01 10:32 -8.08988 -34.93523 555 ft 134 kts 160°
2026-05-01 10:33 -8.10708 -34.92939 244 ft 133 kts 162°
2026-05-01 10:33 -8.12396 -34.92396 52 ft 90 kts 162°
2026-05-01 10:34 -8.12729 -34.92286 56 ft 33 kts 162°
2026-05-01 10:34 -8.12954 -34.92212 54 ft 34 kts 162°
2026-05-01 10:34 -8.13121 -34.92157 52 ft 16 kts 162°
2026-05-01 10:35 -8.13278 -34.92033 48 ft 0 kts 131°
2026-05-01 10:36 -8.13284 -34.92024 48 ft 5 kts 122°
2026-05-01 10:37 -8.13282 -34.91981 49 ft 8 kts 51°
2026-05-01 10:37 -8.13143 -34.91999 50 ft 13 kts 342°
2026-05-01 10:37 -8.13047 -34.92030 53 ft 16 kts 342°
2026-05-01 10:38 -8.12957 -34.92056 54 ft 11 kts 355°
2026-05-01 10:38 -8.12884 -34.92032 50 ft 12 kts 80°
2026-05-01 10:38 -8.12905 -34.91984 52 ft 0 kts 114°
2026-05-01 10:38 -8.12910 -34.91973 51 ft 3 kts 120°
2026-05-01 10:39 -8.12922 -34.91955 49 ft 0 kts 124°